Location: G�kdere
(37.0328°N, 30.9000°E)
Time: 06:02:48
(UTC+00:00)

Meteor 1-19 Rocket - Pass Details

Date: 03 March 2021
Orbit: 807 x 928 km, 81.2° (Epoch: 20 April)

Event Time Altitude Azimuth Distance (km) Brightness Sun altitude
Rises 17:01:32 0° 349° (N) 3,550 7.6 -14.6°
Reaches altitude 10° 17:04:02 10° 348° (NNW) 2,590 6.9 -15.1°
Maximum altitude 17:09:56 77° 264° (W) 911 4.5 -16.2°
Drops below altitude 10° 17:15:36 10° 179° (S) 2,494 6.6 -17.4°
Sets 17:17:59 0° 177° (S) 3,409 7.3 -17.8°
